Location: Vista Encantada
(35.1109°N, 106.5681°W)
Time: 21:55:27
(UTC+00:00)

Nauka - Pass Details

Date: 02 October 2021
Orbit: 417 x 423 km, 51.6° (Epoch: 26 October)

Event Time Altitude Azimuth Distance (km) Brightness Sun altitude
Rises 02:03:34 0° 327° (NNW) 2,364 ? -15.9°
Reaches altitude 10° 02:06:32 10° 355° (N) 1,499 ? -16.5°
Enters shadow 02:08:16 13° 26° (NNE) 1,308 ? -16.9°
